Weather History for Luxor, Egypt

Change the Weather History Date:

Saturday, November 17, 2012

  Actual Average Record
Temperature  
Mean Temperature 74 °F -  
Max Temperature 88 °F 76 °F 89 °F (2002)
Min Temperature 60 °F 49 °F 48 °F (1998)
Cooling Degree Days 9    
Growing Degree Days 24 (Base 50)    
Moisture  
Dew Point 52 °F    
Average Humidity 47    
Maximum Humidity 68    
Minimum Humidity 20    
Precipitation  
Precipitation 0.00 in 0.00 in - ()
Sea Level Pressure  
Sea Level Pressure 29.87 in    
Wind  
Wind Speed 1 mph ()    
Max Wind Speed 5 mph    
Max Gust Speed -    
Visibility 5.4 miles    
Events      
Averages and records for this station are not official NWS values.
T = Trace of Precipitation, MM = Missing Value Source: Averaged Metar Reports

Daily Weather History Graph

Daily Weather History Graph

Search for Another Location

Airport:

Trip Planner

Search our weather history database for the weather conditions in past years. The results will help you decide how hot, cold, wet, or windy it might be!

Date:

Astronomy

Nov. 17, 2012 Rise Set
Actual Time 6:08 AM EET 4:59 PM EET
Civil Twilight 5:44 AM EET 5:24 PM EET
Nautical Twilight 5:16 AM EET 5:51 PM EET
Astronomical Twilight 4:48 AM EET 6:19 PM EET
Moon 9:35 AM EET (11/17) 8:45 PM EET (11/17)
Length of Visible Light 11h 39m
Length of Day
10h 51m
Waxing Crescent, 17% of the Moon is Illuminated
Nov 17
Waxing Crescent
Nov 20
First Quarter
Nov 28
Full
Dec 6
Last Quarter
Dec 13
New

Hourly Weather History & Observations

Time (EET) Temp. Heat Index Dew Point Humidity Pressure Visibility Wind Dir Wind Speed Gust Speed Precip Events Conditions
12:00 AM 68.0 °F - 53.6 °F 60% 29.89 in - Calm Calm - N/A   Clear
1:00 AM 68.0 °F - 53.6 °F 60% 29.86 in - Calm Calm - N/A   Clear
2:00 AM 66 °F - 52 °F 51% 29.86 in 6 mi Calm Calm - -  
2:00 AM 66.2 °F - 51.8 °F 60% 29.86 in - Calm Calm - N/A   Clear
3:00 AM 62.6 °F - 50.0 °F 63% 29.86 in - SSW 2.3 mph - N/A   Clear
4:00 AM 62.6 °F - 50.0 °F 63% 29.86 in - Calm Calm - N/A   Clear
5:00 AM - - - N/A% 29.86 in - NE 2.3 mph - N/A   Clear
6:00 AM 62.6 °F - 48.2 °F 59% 29.89 in - SSE 3.5 mph - N/A   Clear
7:00 AM 62.6 °F - 51.8 °F 68% 29.89 in - North 2.3 mph - N/A   Clear
8:00 AM 69 °F - 52 °F 44% 29.91 in 6 mi Calm Calm - -   Clear
8:00 AM 69.8 °F - 51.8 °F 53% 29.92 in - Calm Calm - N/A   Clear
9:00 AM 73.4 °F - 57.2 °F 57% 29.92 in - Calm Calm - N/A   Clear
10:00 AM 77.0 °F - 55.4 °F 47% 29.92 in 4.3 mi ENE 2.3 mph - N/A   Unknown
11:00 AM 80.6 °F 81.1 °F 59.0 °F 48% 29.92 in 4.3 mi Calm Calm - N/A   Unknown
12:00 PM 84.2 °F 83.8 °F 59.0 °F 42% 29.89 in - West 3.5 mph - N/A   Clear
1:00 PM 86.0 °F 84.9 °F 57.2 °F 37% 29.86 in - WNW 2.3 mph - N/A   Clear
2:00 PM 88 °F - 53 °F 20% 29.84 in 6 mi West 4.6 mph - -  
2:00 PM 87.8 °F - 51.8 °F 29% 29.83 in - West 4.6 mph - N/A   Clear
3:00 PM 87.8 °F - 51.8 °F 29% 29.83 in - West 3.5 mph - N/A   Clear
4:00 PM 86.0 °F - 51.8 °F 31% 29.83 in - WNW 4.6 mph - N/A   Clear
5:00 PM 82.4 °F 81.7 °F 55.4 °F 39% 29.83 in - North 1.2 mph - N/A   Clear
6:00 PM 78.8 °F - 53.6 °F 42% 29.83 in - Calm Calm - N/A   Clear
7:00 PM 75.2 °F - 50.0 °F 41% 29.86 in - Calm Calm - N/A   Clear
8:00 PM 73 °F - 52 °F 36% 29.88 in 6 mi SW 2.3 mph - -  
8:00 PM 73.4 °F - 51.8 °F 47% 29.89 in - SW 2.3 mph - N/A   Clear
9:00 PM 71.6 °F - 48.2 °F 43% 29.89 in - Calm Calm - N/A   Clear
10:00 PM 69.8 °F - 46.4 °F 43% 29.89 in - Calm Calm - N/A   Clear
11:00 PM 68.0 °F - 46.4 °F 46% 29.89 in - SSE 2.3 mph - N/A   Clear